TITAN 34D TRANSTAGE DEB

基本信息
目录编号:
23619
目录名称:
TITAN 34D TRANSTAGE DEB
国际标识:
1988-077N
轨道中心:
EARTH
物体状态:
在轨
发射日期:
1988-09-02 UTC
轨道信息
数据来源: 国际轨道数据
星历时间: 2026-06-23T04:16:52+0800
半长轴: 26480.057km
偏心率: 0.7367199
轨道倾角: 26.474°
近地点辐角: 233.859°
升交点赤经: 139.530°
平近点角: 34.212°
近地点: 593.535km
远地点: 39610.305km
周期: 714.724分钟
每日圈数: 2.014765
详细信息
发射场:
AFETR
轨道高度:
LEO
数据来源:
AOE Integration Group
参考系:
TEME
时间系统:
UTC
历元类型:
SGP4
2D轨道图
3D轨道图
轨道高度分析图
轨道倾角分析图
轨道综合分析图
查看轨道综合分析图